User: anonymous   Login
Location: Barruelo
(41.2448°N, 3.8231°W)
Time: 05:06:44
(UTC+00:00)
Language:

Cosmos 1606 Rocket - Orbit

View from above orbital plane
View from above orbital plane
View from above satellite
View from above satellite

Ground track
Ground track

The orbit is defined by the following mean orbital elements,

1 15370U          26044.71108252 +.00000000 +00000-0 +51223-4 0 00008
2 15370  82.5142 279.0400 0021379  54.8122 305.5092 14.86036489    09
Epoch (UTC): 13 February 2026 17:03:57
Eccentricity: 0.0021379
inclination: 82.5142°
perigee height: 595 km
apogee height: 625 km
right ascension of ascending node: 279.0400°
argument of perigee: 54.8122°
revolutions per day: 14.86036489
mean anomaly at epoch: 305.5092°

The dashed part of the orbit path shows where the satellite is in the earth's shadow,  

DLR